Location: Valley Falls
(35.0169°N, 81.9753°W)
Time: 21:23:30
(UTC+00:00)

N. Korean satellite - Pass Details

Date: 30 November 2022
Orbit: 407 x 442 km, 97.3° (Epoch: 05 February)

Event Time Altitude Azimuth Distance (km) Brightness Sun altitude
Rises 22:43:06 0° 197° (SSW) 2,408 10.7 -5.8°
Reaches altitude 10° 22:45:26 10° 214° (SW) 1,557 10.1 -6.3°
Maximum altitude 22:48:00 21° 265° (W) 1,080 9.5 -6.8°
Drops below altitude 10° 22:50:34 10° 314° (NW) 1,575 9.5 -7.2°
Sets 22:53:04 0° 332° (NNW) 2,485 10.3 -7.7°
